Location: Dana
(41.8364°N, 106.7042°W)
Time: 20:04:58
(UTC+00:00)

Injun/Solrad 3 - Pass Details

Date: 18 May 2026
Orbit: 867 x 989 km, 66.8° (Epoch: 6 June)

Event Time Altitude Azimuth Distance (km) Brightness Sun altitude
Rises 00:36:02 0° 279° (W) 3,569 12.7 17.8°
Reaches altitude 10° 00:40:33 10° 310° (NW) 2,662 11.6 17.0°
Maximum altitude 00:42:47 12° 331° (NNW) 2,538 10.9 16.6°
Drops below altitude 10° 00:45:03 10° 353° (N) 2,695 10.6 16.2°
Sets 00:49:43 0° 23° (NNE) 3,672 10.9 15.3°
